| time (UTC) | temp F | wind direction | speed knots | gust knots | rain 1hr in | rain 24hr in | rain mn in | humidity % | barometer mb |
| 20260505153027 | 47 | 269 | 0.0 | 0.0 | 0.00 | 0.66 | 0.00 | 85 | 1013.3 |
| 20260505151527 | 46 | 323 | 0.0 | 0.0 | 0.00 | 0.66 | 0.00 | 85 | 1013.2 |
| 20260505124520 | 44 | 290 | 0.0 | 0.0 | 0.00 | 0.66 | 0.00 | 87 | 1011.7 |
| 20260505123024 | 44 | 277 | 0.0 | 0.9 | 0.00 | 0.66 | 0.00 | 87 | 1011.7 |
| 20260505121513 | 44 | 271 | 0.0 | 0.0 | 0.00 | 0.66 | 0.00 | 87 | 1011.8 |
| 20260505120014 | 44 | 280 | 0.0 | 0.0 | 0.00 | 0.66 | 0.00 | 87 | 1011.7 |
| 20260505114520 | 44 | 288 | 0.0 | 3.5 | 0.00 | 0.66 | 0.00 | 87 | 1011.6 |
| 20260505113022 | 44 | 280 | 0.0 | 4.3 | 0.00 | 0.66 | 0.00 | 87 | 1011.5 |
| 20260505111525 | 44 | 276 | 0.0 | 0.9 | 0.00 | 0.66 | 0.00 | 86 | 1011.6 |
| 20260505101521 | 44 | 274 | 0.0 | 0.0 | 0.00 | 0.66 | 0.00 | 85 | 1012.0 |
| 20260505100028 | 44 | 285 | 0.0 | 0.9 | 0.00 | 0.66 | 0.00 | 85 | 1012.0 |
| 20260505093028 | 43 | 312 | 0.0 | 0.9 | 0.00 | 0.66 | 0.00 | 88 | 1011.8 |
| 20260505091527 | 43 | 276 | 0.0 | 0.0 | 0.00 | 0.66 | 0.00 | 89 | 1012.1 |
| 20260505090026 | 43 | 278 | 0.0 | 1.7 | 0.00 | 0.66 | 0.00 | 88 | 1012.1 |
| 20260505084526 | 42 | 256 | 0.0 | 0.9 | 0.00 | 0.66 | 0.00 | 89 | 1012.6 |
| 20260505083014 | 42 | 260 | 0.0 | 0.0 | 0.00 | 0.66 | 0.00 | 90 | 1012.7 |
| 20260505081527 | 41 | 274 | 0.0 | 0.0 | 0.00 | 0.66 | 0.00 | 89 | 1012.7 |
| 20260505080026 | 42 | 291 | 0.0 | 0.9 | 0.00 | 0.66 | 0.00 | 87 | 1012.8 |
| 20260505074526 | 43 | 314 | 0.0 | 0.9 | 0.00 | 0.66 | 0.00 | 84 | 1012.8 |
| 20260505041512 | 44 | 267 | 0.9 | 7.0 | 0.05 | 0.60 | 0.60 | 89 | 1012.6 |
| 20260505040016 | 43 | 273 | 0.0 | 3.5 | 0.05 | 0.58 | 0.58 | 90 | 1012.4 |
| 20260505034518 | 43 | 283 | 0.0 | 0.9 | 0.02 | 0.56 | 0.56 | 90 | 1012.7 |
| 20260505033020 | 43 | 270 | 0.0 | 1.7 | 0.02 | 0.55 | 0.55 | 89 | 1012.1 |
| 20260505031509 | 42 | 253 | 0.0 | 0.9 | 0.04 | 0.55 | 0.55 | 89 | 1012.0 |
| 20260505030025 | 42 | 287 | 0.0 | 3.5 | 0.08 | 0.54 | 0.54 | 88 | 1011.8 |
| 20260505024518 | 42 | 252 | 0.0 | 1.7 | 0.20 | 0.54 | 0.54 | 90 | 1011.8 |
| 20260505023021 | 43 | 249 | 0.0 | 0.9 | 0.33 | 0.52 | 0.52 | 90 | 1012.0 |
| 20260505021520 | 42 | 264 | 0.0 | 2.6 | 0.37 | 0.51 | 0.51 | 90 | 1012.0 |
| 20260505020014 | 43 | 144 | 1.7 | 9.6 | 0.33 | 0.46 | 0.46 | 88 | 1012.4 |
| 20260505014517 | 45 | 187 | 0.0 | 5.2 | 0.21 | 0.34 | 0.34 | 87 | 1013.0 |
| 20260505013018 | 47 | 264 | 0.9 | 3.5 | 0.07 | 0.20 | 0.20 | 82 | 1012.7 |
| 20260505011522 | 49 | 294 | 0.0 | 4.3 | 0.01 | 0.14 | 0.14 | 76 | 1011.9 |
| 20260505010021 | 50 | 263 | 0.0 | 2.6 | 0.00 | 0.13 | 0.13 | 75 | 1011.3 |
| 20260505004523 | 50 | 284 | 0.0 | 8.7 | 0.00 | 0.13 | 0.13 | 77 | 1011.0 |
| 20260505003019 | 51 | 281 | 0.9 | 7.8 | 0.00 | 0.13 | 0.13 | 77 | 1010.7 |
| 20260504221518 | 50 | 218 | 0.0 | 6.1 | 0.06 | 0.06 | 0.06 | 80 | 1010.9 |
| 20260504220022 | 53 | 304 | 0.9 | 6.1 | 0.05 | 0.05 | 0.05 | 72 | 1011.0 |
| 20260504214535 | 58 | 78 | 0.9 | 5.2 | 0.00 | 0.00 | 0.00 | 59 | 1010.4 |
| 20260504213013 | 56 | 271 | 0.9 | 5.2 | 0.00 | 0.00 | 0.00 | 67 | 1011.1 |
| 20260504211518 | 56 | 253 | 0.0 | 10.4 | 0.00 | 0.00 | 0.00 | 63 | 1011.3 |
| 20260504210022 | 56 | 252 | 0.0 | 10.4 | 0.00 | 0.00 | 0.00 | 58 | 1011.2 |
| 20260504204506 | 61 | 288 | 4.3 | 8.7 | 0.00 | 0.00 | 0.00 | 50 | 1011.0 |
| 20260504203012 | 65 | 301 | 0.9 | 9.6 | 0.00 | 0.00 | 0.00 | 45 | 1010.9 |
| 20260504201515 | 63 | 333 | 1.7 | 9.6 | 0.00 | 0.00 | 0.00 | 49 | 1011.2 |
| 20260504200028 | 64 | 293 | 0.9 | 8.7 | 0.00 | 0.00 | 0.00 | 48 | 1011.5 |
| 20260504194522 | 65 | 275 | 0.9 | 7.8 | 0.00 | 0.00 | 0.00 | 46 | 1011.7 |
| 20260504193020 | 63 | 301 | 0.9 | 7.0 | 0.00 | 0.00 | 0.00 | 48 | 1012.0 |
| 20260504191514 | 65 | 138 | 0.0 | 4.3 | 0.00 | 0.00 | 0.00 | 46 | 1012.1 |
| 20260504190020 | 63 | 330 | 0.0 | 8.7 | 0.00 | 0.00 | 0.00 | 47 | 1012.1 |
| 20260504184522 | 62 | 342 | 0.0 | 8.7 | 0.00 | 0.00 | 0.00 | 50 | 1012.0 |
| 20260504183028 | 59 | 284 | 1.7 | 7.0 | 0.00 | 0.00 | 0.00 | 54 | 1012.3 |
| 20260504181511 | 58 | 274 | 0.0 | 4.3 | 0.00 | 0.00 | 0.00 | 58 | 1012.6 |
| 20260504180016 | 56 | 280 | 0.0 | 1.7 | 0.00 | 0.00 | 0.00 | 59 | 1012.8 |
| 20260504174520 | 54 | 289 | 0.0 | 1.7 | 0.00 | 0.00 | 0.00 | 63 | 1013.1 |
| 20260504173024 | 52 | 277 | 0.0 | 1.7 | 0.00 | 0.00 | 0.00 | 68 | 1013.2 |
| 20260504171538 | 51 | 289 | 0.0 | 1.7 | 0.00 | 0.00 | 0.00 | 68 | 1013.0 |